MULLICA TWP. - NJ SAFETYNET current weather conditions

sailwx.info

Air temperature 5.6° C

Last reported at 2019-Dec-05 23:00 UTC.
Time now 2019-Dec-06 00:15 UTC

Location: N 39°33' W 074°44'.
View on Google Maps.

See reports from other nearby stations

  
Tides and Currents Weather Stations Pressure Air Temp Water Temp Dewpoint Dewpoint Depression Visibility Wind Speed Wind Dir Waves Ship Positions
date/time (UTC)wind fromknots sea level pressurealtimeterstation pressurevisibilityair tempwater tempwave heightnotes
2019-Dec-05 23:00 5.6
2019-Dec-05 22:55 013 5.6
2019-Dec-05 22:50 5.6
2019-Dec-05 22:45 319 5.6
2019-Dec-05 22:40 5.6
2019-Dec-05 22:35 5.6
2019-Dec-05 22:30 5.6
2019-Dec-05 22:25 306 13 gusting 15 5.6
2019-Dec-05 22:20 5.6
2019-Dec-05 22:15 5.6
2019-Dec-05 22:10 5.6
2019-Dec-05 22:05 5.6
2019-Dec-05 22:00 5.6
2019-Dec-05 21:55 5.6
2019-Dec-05 21:50 5.6
2019-Dec-05 21:45 5.6
2019-Dec-05 21:40 5.6
2019-Dec-05 21:35 263 7 gusting 16 5.6
2019-Dec-05 21:30 315 14 gusting 13 5.6
2019-Dec-05 21:25 328 5.6
2019-Dec-05 21:20 293 6 gusting 23 5.6
2019-Dec-05 21:15 5.6
2019-Dec-05 21:10 156 7 gusting 17 5.6
2019-Dec-05 21:05 265 5.6
2019-Dec-05 21:00 342 4 gusting 17 5.6
2019-Dec-05 20:55 5.6
2019-Dec-05 20:50 293 6 gusting 15 5.6
2019-Dec-05 20:45 311 11 gusting 15 5.6
2019-Dec-05 20:40 336 9 gusting 17 5.6
2019-Dec-05 20:35 312 6 gusting 16 5.6
2019-Dec-05 20:30 311 6 gusting 13 5.6
2019-Dec-05 20:25 5.6
2019-Dec-05 20:20 196 5 gusting 11 6.1
2019-Dec-05 20:15 5.6
2019-Dec-05 20:10 6.1
2019-Dec-05 20:05 6.1
2019-Dec-05 20:00 011 6.1
2019-Dec-05 19:55 046 6.1
2019-Dec-05 19:50 318 1 gusting 20 6.1
2019-Dec-05 19:45 262 13 gusting 20 6.1
2019-Dec-05 19:40 329 16 gusting 18 6.1
2019-Dec-05 19:35 313 9 gusting 21 6.1
2019-Dec-05 19:30 308 15 gusting 20 6.1
2019-Dec-05 19:25 5.6
2019-Dec-05 19:20 303 17 gusting 22 6.1
2019-Dec-05 19:15 301 13 gusting 24 6.1
2019-Dec-05 19:10 285 8 gusting 21 6.1
2019-Dec-05 19:05 275 17 gusting 19 6.1
2019-Dec-05 19:00 272 13 gusting 23 6.1
2019-Dec-05 18:55 319 13 gusting 21 6.1
2019-Dec-05 18:50 291 7 gusting 19 6.1
2019-Dec-05 18:45 292 13 gusting 22 6.1
2019-Dec-05 18:40 293 12 gusting 22 6.1
2019-Dec-05 18:35 285 12 gusting 21 5.6
2019-Dec-05 18:30 293 15 gusting 23 5.6
2019-Dec-05 18:25 323 14 gusting 22 5.6
2019-Dec-05 18:20 299 14 gusting 22 5.6
2019-Dec-05 18:15 288 19 gusting 23 5.6
2019-Dec-05 18:10 263 14 gusting 24 6.1
2019-Dec-05 18:05 322 23 gusting 16 6.1
2019-Dec-05 18:00 306 13 gusting 22 6.1
2019-Dec-05 17:55 285 16 gusting 21 5.6
2019-Dec-05 17:50 323 12 gusting 23 5.6
2019-Dec-05 17:45 301 17 gusting 27 5.6
2019-Dec-05 17:40 296 15 gusting 15 5.6
2019-Dec-05 17:35 312 6 gusting 23 5.6
2019-Dec-05 17:30 308 17 gusting 23 5.6
2019-Dec-05 17:25 322 19 gusting 21 5.6
2019-Dec-05 17:20 325 10 gusting 30 5.6
2019-Dec-05 17:15 289 21 gusting 23 5.6
2019-Dec-05 17:10 279 6 gusting 24 5.6
2019-Dec-05 17:05 305 14 gusting 29 5.6
2019-Dec-05 17:00 245 11 gusting 21 6.1
2019-Dec-05 16:55 288 21 gusting 22 6.1
2019-Dec-05 16:50 321 16 gusting 19 5.6
2019-Dec-05 16:45 335 18 gusting 18 5.6
2019-Dec-05 16:40 218 7 gusting 28 5.6
2019-Dec-05 16:35 303 21 gusting 30 5.6
2019-Dec-05 16:30 325 8 gusting 30 5.6
2019-Dec-05 16:25 266 21 gusting 23 5.6
2019-Dec-05 16:20 292 11 gusting 19 6.1
2019-Dec-05 16:15 313 16 gusting 19 6.1
2019-Dec-05 16:10 299 9 gusting 29 5.6
2019-Dec-05 16:05 339 13 gusting 28 5.6
2019-Dec-05 16:00 312 16 gusting 30 5.6
2019-Dec-05 15:55 308 17 gusting 24 5.6
2019-Dec-05 15:50 295 19 gusting 25 5.6
2019-Dec-05 15:45 298 13 gusting 25 5.6
2019-Dec-05 15:40 5.6
2019-Dec-05 15:35 326 19 gusting 24 5.6
2019-Dec-05 15:30 321 17 gusting 19 5.6
2019-Dec-05 15:25 322 8 gusting 21 5.6
2019-Dec-05 15:20 292 12 gusting 21 5.6
2019-Dec-05 15:15 298 13 gusting 25 5.6
2019-Dec-05 15:10 272 8 gusting 26 5.0
2019-Dec-05 15:05 283 9 gusting 21 5.0
2019-Dec-05 15:00 296 14 gusting 25 5.0
2019-Dec-05 14:55 265 10 gusting 19 5.0
2019-Dec-05 14:50 305 14 gusting 23 5.0
2019-Dec-05 14:45 319 12 gusting 19 5.0
2019-Dec-05 14:40 248 15 gusting 19 5.0
2019-Dec-05 14:35 298 15 gusting 14 4.4
2019-Dec-05 14:30 329 9 gusting 17 4.4
2019-Dec-05 14:25 266 12 gusting 20 4.4
2019-Dec-05 14:20 261 13 gusting 20 3.9
2019-Dec-05 14:15 306 10 gusting 14 3.9
2019-Dec-05 14:10 325 9 gusting 17 3.9
2019-Dec-05 14:05 318 8 gusting 19 3.9
2019-Dec-05 14:00 315 9 gusting 17 3.9
2019-Dec-05 13:55 338 10 gusting 18 3.9
2019-Dec-05 13:50 292 13 gusting 19 3.9
2019-Dec-05 13:45 319 11 gusting 16 3.9
2019-Dec-05 13:40 306 10 gusting 15 3.9
2019-Dec-05 13:35 293 11 gusting 17 3.9
2019-Dec-05 13:30 272 7 gusting 14 3.9
2019-Dec-05 13:25 296 11 gusting 14 3.9
2019-Dec-05 13:20 295 8 gusting 16 3.9
2019-Dec-05 13:15 292 10 gusting 13 3.9
2019-Dec-05 13:10 301 4 gusting 12 3.3
2019-Dec-05 13:05 311 7 gusting 12 3.3
2019-Dec-05 13:00 242 5 gusting 11 3.3
2019-Dec-05 12:55 265 7 gusting 14 3.3
2019-Dec-05 12:50 326 5 gusting 15 3.3
2019-Dec-05 12:45 323 12 gusting 15 3.3
2019-Dec-05 12:40 301 7 gusting 13 2.8
2019-Dec-05 12:35 303 9 gusting 13 3.3
2019-Dec-05 12:30 298 10 gusting 12 3.3
2019-Dec-05 12:25 321 5 gusting 13 3.3
2019-Dec-05 12:20 289 6 gusting 12 3.3
2019-Dec-05 12:15 295 6 gusting 9 3.3
2019-Dec-05 12:10 259 2 gusting 10 2.8
2019-Dec-05 12:05 282 6 gusting 12 2.8
2019-Dec-05 12:00 308 2.8
2019-Dec-05 11:55 272 4 gusting 13 2.8
2019-Dec-05 11:50 295 8 gusting 10 2.8
2019-Dec-05 11:45 313 6 gusting 13 2.8
2019-Dec-05 11:40 281 5 gusting 12 2.8
2019-Dec-05 11:35 296 6 gusting 12 2.8
2019-Dec-05 11:30 271 4 gusting 13 2.8
2019-Dec-05 11:25 315 8 gusting 13 2.8
2019-Dec-05 11:20 305 7 gusting 11 2.2
2019-Dec-05 11:15 305 7 gusting 10 2.2
2019-Dec-05 11:10 286 6 gusting 9 2.2
2019-Dec-05 11:05 268 6 gusting 11 2.2
2019-Dec-05 11:00 283 8 gusting 7 2.2
2019-Dec-05 10:55 261 6 gusting 8 2.2
2019-Dec-05 10:50 292 4 gusting 8 2.2
2019-Dec-05 10:45 282 6 gusting 8 2.2
2019-Dec-05 10:40 288 6 gusting 7 2.2
2019-Dec-05 10:35 275 1 gusting 6 2.2
2019-Dec-05 10:30 289 1 gusting 6 2.2
2019-Dec-05 10:25 321 1 gusting 6 2.2
2019-Dec-05 10:20 275 6 gusting 6 2.2
2019-Dec-05 10:15 281 5 gusting 7 2.2
2019-Dec-05 10:10 313 6 gusting 8 2.2
2019-Dec-05 10:05 311 6 gusting 7 2.2
2019-Dec-05 10:00 281 5 gusting 10 2.2
2019-Dec-05 09:55 272 6 gusting 10 2.2
2019-Dec-05 09:50 305 5 gusting 10 2.2
2019-Dec-05 09:45 262 5 gusting 8 2.2
2019-Dec-05 09:40 268 4 gusting 7 2.2
2019-Dec-05 09:35 292 6 gusting 10 2.2
2019-Dec-05 09:30 268 7 gusting 10 2.2
2019-Dec-05 09:25 293 6 gusting 9 2.2
2019-Dec-05 09:20 319 4 gusting 9 2.2
2019-Dec-05 09:15 282 6 gusting 9 2.2
2019-Dec-05 09:10 298 7 gusting 7 2.2
2019-Dec-05 09:05 285 4 gusting 6 2.2
2019-Dec-05 09:00 293 5 gusting 8 2.2
2019-Dec-05 08:55 293 5 gusting 7 2.2
2019-Dec-05 08:50 248 1 gusting 6 2.2
2019-Dec-05 08:45 262 2.2
2019-Dec-05 08:40 306 2 gusting 6 1.7
2019-Dec-05 08:35 268 4 gusting 6 1.7
2019-Dec-05 08:30 298 1.7
2019-Dec-05 08:25 246 1.7
2019-Dec-05 08:20 273 1.7
2019-Dec-05 08:10 279 5 gusting 9 1.7
2019-Dec-05 08:05 250 1.7
2019-Dec-05 08:00 295 6 gusting 6 1.7
2019-Dec-05 07:55 282 1 gusting 6 1.7
2019-Dec-05 07:50 283 1 gusting 6 1.7
2019-Dec-05 07:45 262 1.7
2019-Dec-05 07:40 273 2 gusting 5 1.7
2019-Dec-05 07:35 246 1.7
2019-Dec-05 07:30 233 1.7
2019-Dec-05 07:25 245 1.7
2019-Dec-05 07:20 252 1.7
2019-Dec-05 07:15 203 1.7
2019-Dec-05 07:10 203 1.1
2019-Dec-05 07:05 203 1.1
2019-Dec-05 07:00 203 1.1
2019-Dec-05 06:55 203 1.1
2019-Dec-05 06:50 203 1.1
2019-Dec-05 06:45 203 0.6
2019-Dec-05 06:40 218 0.6
2019-Dec-05 06:35 218 0.6
2019-Dec-05 06:30 218 0.6
2019-Dec-05 06:25 218 0.6
2019-Dec-05 06:20 255 0.6
2019-Dec-05 06:15 255 0.6
2019-Dec-05 06:10 255 0.6
2019-Dec-05 06:05 255 0.6
2019-Dec-05 06:00 255 0.6
2019-Dec-05 05:55 255 0.6
2019-Dec-05 05:50 255 0.6
2019-Dec-05 05:45 255 0.6
2019-Dec-05 05:40 255 0.6
2019-Dec-05 05:35 255 0.6
2019-Dec-05 05:30 255 -0.0
2019-Dec-05 05:25 255 0.6
2019-Dec-05 05:20 255 -0.0
2019-Dec-05 05:15 255 -0.0
2019-Dec-05 05:10 255 0.6
2019-Dec-05 05:05 255 -0.0
2019-Dec-05 05:00 255 0.6
2019-Dec-05 04:55 255 0.6
2019-Dec-05 04:50 255 0.6
2019-Dec-05 04:45 255 -0.6
2019-Dec-05 04:40 255 -0.0
2019-Dec-05 04:35 255 0.6
2019-Dec-05 04:30 255 0.6
2019-Dec-05 04:25 255 0.6
2019-Dec-05 04:20 255 1.1
2019-Dec-05 04:15 255 1.1
2019-Dec-05 04:10 255 1.1
2019-Dec-05 04:05 255 1.1
2019-Dec-05 04:00 255 1.1
2019-Dec-05 03:55 255 1.7
2019-Dec-05 03:50 255 1.7
2019-Dec-05 03:45 255 1.7
2019-Dec-05 03:40 255 2.2
2019-Dec-05 03:35 255 2.2
2019-Dec-05 03:30 255 2.2
2019-Dec-05 03:25 255 2.2
2019-Dec-05 03:20 255 2.2
2019-Dec-05 03:15 255 2.2
2019-Dec-05 03:10 255 2.2
2019-Dec-05 03:05 272 5 gusting 4 2.2
2019-Dec-05 03:00 271 3 gusting 6 2.2
2019-Dec-05 02:55 269 5 gusting 5 2.2
2019-Dec-05 02:50 281 1 gusting 6 2.2
2019-Dec-05 02:45 209 2.2
2019-Dec-05 02:40 209 2.2
2019-Dec-05 02:35 265 2.2
2019-Dec-05 02:30 278 2.2
2019-Dec-05 02:25 278 2.2
2019-Dec-05 02:20 243 2.2
2019-Dec-05 02:15 289 5 gusting 1 2.2
2019-Dec-05 02:10 258 2.2
2019-Dec-05 02:05 292 2.2
2019-Dec-05 02:00 242 2.2
2019-Dec-05 01:55 238 2.2
2019-Dec-05 01:50 238 2.2
2019-Dec-05 01:45 252 2.2
2019-Dec-05 01:40 261 1 gusting 6 2.2
2019-Dec-05 01:35 242 2.2
2019-Dec-05 01:30 263 4 2.2
2019-Dec-05 01:25 262 2.2
2019-Dec-05 01:20 262 2.2
2019-Dec-05 01:15 262 2.2
2019-Dec-05 01:10 263 1 gusting 5 2.2
2019-Dec-05 01:05 219 2.2
2019-Dec-05 01:00 288 4 gusting 6 2.2
2019-Dec-05 00:55 291 1 gusting 4 2.2
2019-Dec-05 00:50 269 2.2
2019-Dec-05 00:45 288 2.2
2019-Dec-05 00:40 288 2.2
2019-Dec-05 00:35 288 2.2
2019-Dec-05 00:30 293 3 gusting 6 2.2
2019-Dec-05 00:25 283 2.2
2019-Dec-05 00:20 285 2 gusting 6 2.2
2019-Dec-05 00:15 308 5 gusting 6 2.2
2019-Dec-05 00:10 291 1 gusting 6 2.2
2019-Dec-05 00:05 283 6 gusting 6 2.2
2019-Dec-05 00:00 286 5 gusting 7 2.8
2019-Dec-04 23:55 296 6 gusting 7 2.8
2019-Dec-04 23:50 278 1 gusting 6 2.8
2019-Dec-04 23:45 276 5 gusting 9 2.8
2019-Dec-04 23:40 263 5 gusting 7 2.8
2019-Dec-04 23:35 288 6 gusting 6 2.8
2019-Dec-04 23:30 308 5 gusting 8 2.8
2019-Dec-04 23:25 256 6 gusting 7 3.3
2019-Dec-04 23:20 298 1 gusting 9 3.3
2019-Dec-04 23:15 278 5 gusting 10 3.3
2019-Dec-04 23:10 258 3 gusting 6 3.3
2019-Dec-04 23:05 278 5 gusting 11 3.3
2019-Dec-04 23:00 271 6 gusting 9 3.3
2019-Dec-04 22:55 269 4 gusting 8 3.3
2019-Dec-04 22:50 268 6 gusting 8 3.9
2019-Dec-04 22:45 286 1 gusting 9 3.9
2019-Dec-04 22:40 239 1 gusting 8 3.9
2019-Dec-04 22:35 278 5 gusting 7 3.9
2019-Dec-04 22:30 278 4 gusting 10 4.4
2019-Dec-04 22:25 279 5 gusting 11 4.4
2019-Dec-04 22:20 295 8 gusting 10 4.4
2019-Dec-04 22:15 299 7 gusting 9 4.4
2019-Dec-04 22:10 248 5 gusting 12 4.4
2019-Dec-04 22:05 256 5 gusting 8 4.4
2019-Dec-04 22:00 268 4 gusting 11 4.4
2019-Dec-04 21:55 276 7 gusting 12 5.0
2019-Dec-04 21:50 272 6 gusting 13 5.0
2019-Dec-04 21:45 276 4 gusting 11 5.0
2019-Dec-04 21:40 253 6 gusting 11 5.0
2019-Dec-04 21:35 248 6 gusting 12 5.0
2019-Dec-04 21:30 266 10 gusting 12 5.6
2019-Dec-04 21:25 268 10 gusting 14 5.6
2019-Dec-04 21:20 283 5 gusting 13 5.6
2019-Dec-04 21:15 223 9 gusting 7 5.6
2019-Dec-04 21:10 296 4 gusting 6 5.6
2019-Dec-04 21:05 271 4 gusting 6 5.6
2019-Dec-04 21:00 272 1 gusting 8 6.1
2019-Dec-04 20:55 293 7 gusting 13 6.1
2019-Dec-04 20:50 235 1 gusting 10 6.1
2019-Dec-04 20:45 285 7 gusting 10 6.1
2019-Dec-04 20:40 305 6 gusting 9 6.1
2019-Dec-04 20:35 315 6 gusting 12 6.1
2019-Dec-04 20:30 302 6 gusting 10 6.1
2019-Dec-04 20:25 291 6 gusting 8 6.1
2019-Dec-04 20:20 301 6 gusting 13 6.1
2019-Dec-04 20:15 329 7 gusting 13 6.1
2019-Dec-04 20:10 273 9 gusting 13 6.1
2019-Dec-04 20:05 302 7 gusting 13 6.1
2019-Dec-04 20:00 319 7 gusting 12 6.7
2019-Dec-04 19:55 322 6 gusting 10 6.7
2019-Dec-04 19:50 299 8 gusting 10 6.1
2019-Dec-04 19:45 316 7 gusting 10 6.7
2019-Dec-04 19:40 318 7 gusting 8 6.1
2019-Dec-04 19:35 268 1 gusting 7 6.1
2019-Dec-04 19:30 209 6 gusting 6 6.1
2019-Dec-04 19:25 276 5 gusting 6 6.1
2019-Dec-04 19:20 265 6 gusting 9 5.6
2019-Dec-04 19:15 299 6 gusting 10 6.1
2019-Dec-04 19:10 291 6 gusting 9 5.6
2019-Dec-04 19:05 289 5 gusting 10 5.6
2019-Dec-04 19:00 293 6 gusting 8 5.6
2019-Dec-04 18:55 329 6 gusting 10 5.6
2019-Dec-04 18:50 291 4 gusting 9 5.6
2019-Dec-04 18:45 311 8 gusting 9 5.6
2019-Dec-04 18:40 276 8 gusting 13 5.6
2019-Dec-04 18:35 308 1 gusting 9 5.6
2019-Dec-04 18:30 282 7 gusting 12 5.6
2019-Dec-04 18:25 279 9 gusting 12 5.6
2019-Dec-04 18:20 282 4 gusting 11 5.6
2019-Dec-04 18:15 305 7 gusting 13 5.6
2019-Dec-04 18:10 279 7 gusting 13 5.6
2019-Dec-04 18:05 315 8 gusting 12 5.6
2019-Dec-04 18:00 336 9 gusting 10 5.6
2019-Dec-04 17:55 278 6 gusting 13 5.6
2019-Dec-04 17:50 321 12 gusting 11 5.0
2019-Dec-04 17:45 278 8 gusting 11 5.0
2019-Dec-04 17:40 318 6 gusting 12 5.6
2019-Dec-04 17:35 319 9 gusting 11 5.0
2019-Dec-04 17:30 273 6 gusting 11 5.0
2019-Dec-04 17:25 295 9 gusting 13 5.6
2019-Dec-04 17:20 279 7 gusting 12 5.0
2019-Dec-04 17:15 295 6 gusting 10 5.0
2019-Dec-04 17:10 292 8 gusting 11 5.0
2019-Dec-04 17:05 289 5 gusting 13 5.0
2019-Dec-04 17:00 325 8 gusting 14 5.0
2019-Dec-04 16:55 302 6 gusting 12 5.0
2019-Dec-04 16:50 312 8 gusting 13 4.4
2019-Dec-04 16:45 288 8 gusting 12 4.4
2019-Dec-04 16:40 286 11 gusting 10 4.4
2019-Dec-04 16:35 272 5 gusting 13 4.4
2019-Dec-04 16:30 258 10 gusting 10 4.4
2019-Dec-04 16:25 159 6 gusting 12 4.4
2019-Dec-04 16:20 269 9 gusting 10 4.4
2019-Dec-04 16:15 279 9 gusting 13 4.4
2019-Dec-04 16:10 291 6 gusting 9 4.4
2019-Dec-04 16:05 243 4 gusting 9 4.4
2019-Dec-04 16:00 278 7 gusting 11 4.4
2019-Dec-04 15:55 250 4 gusting 8 4.4
2019-Dec-04 15:50 235 6 gusting 9 4.4
2019-Dec-04 15:45 303 5 gusting 12 3.9
2019-Dec-04 15:40 322 9 gusting 15 3.9
2019-Dec-04 15:35 276 7 gusting 12 3.9
2019-Dec-04 15:30 321 6 gusting 11 3.9
2019-Dec-04 15:25 302 8 gusting 8 3.9
2019-Dec-04 15:20 271 6 gusting 12 3.9
2019-Dec-04 15:15 318 10 gusting 11 3.9
2019-Dec-04 15:10 259 5 gusting 9 3.9
2019-Dec-04 15:05 302 4 gusting 8 3.9
2019-Dec-04 15:00 276 6 gusting 8 3.3
2019-Dec-04 14:55 180 4 3.3
2019-Dec-04 14:50 180 3.3
2019-Dec-04 14:45 180 2.8
2019-Dec-04 14:40 188 2.8
2019-Dec-04 14:35 188 2.2
2019-Dec-04 14:30 189 1 gusting 5 2.2
2019-Dec-04 14:25 147 2.2
2019-Dec-04 14:20 147 2.2
2019-Dec-04 14:15 180 1 gusting 5 1.7
2019-Dec-04 14:10 136 1.7
2019-Dec-04 14:05 136 1.7
2019-Dec-04 14:00 136 1.7
2019-Dec-04 13:55 136 1.7
2019-Dec-04 13:50 136 1.1
2019-Dec-04 13:45 136 1.1
2019-Dec-04 13:40 136 1.1
2019-Dec-04 13:35 136 1.1
2019-Dec-04 13:30 136 1.1
2019-Dec-04 13:25 136 1.1
2019-Dec-04 13:20 136 1.1
2019-Dec-04 13:15 136 1.1
2019-Dec-04 13:10 136 1.1
2019-Dec-04 13:05 136 0.6
2019-Dec-04 13:00 136 0.6
2019-Dec-04 12:55 136 0.6
2019-Dec-04 12:50 136 0.6
2019-Dec-04 12:45 136 0.6
2019-Dec-04 12:40 136 0.6
2019-Dec-04 12:35 136 0.6
2019-Dec-04 12:30 136 0.6
2019-Dec-04 12:25 136 0.6
2019-Dec-04 12:20 136 -0.0
2019-Dec-04 12:15 136 -0.0
2019-Dec-04 12:10 136 -0.0
2019-Dec-04 12:05 136 0.6
2019-Dec-04 12:00 136 -0.0
2019-Dec-04 11:55 136 -0.0
2019-Dec-04 11:50 136 -0.0
2019-Dec-04 11:45 136 -0.0
2019-Dec-04 11:40 136 -0.0
2019-Dec-04 11:35 136 -0.0
2019-Dec-04 11:30 136 -0.0
2019-Dec-04 11:25 136 -0.0
2019-Dec-04 11:20 136 -0.0
2019-Dec-04 11:15 136 -0.0
2019-Dec-04 11:10 136 -0.0
2019-Dec-04 11:05 136 -0.0
2019-Dec-04 11:00 136 -0.6
2019-Dec-04 10:55 129 -0.6
2019-Dec-04 10:50 203 -0.6
2019-Dec-04 10:45 203 -0.6
2019-Dec-04 10:40 203 -0.6
2019-Dec-04 10:35 203 -0.6
2019-Dec-04 10:30 203 -0.6
2019-Dec-04 10:25 203 -0.6
2019-Dec-04 10:20 203 -0.6
2019-Dec-04 10:15 203 -0.6
2019-Dec-04 10:10 203 -0.6
2019-Dec-04 10:05 203 -0.6
2019-Dec-04 10:00 203 -0.6
2019-Dec-04 09:55 203 -0.6
2019-Dec-04 09:50 203 -0.6
2019-Dec-04 09:45 203 -0.6
2019-Dec-04 09:40 203 -0.6
2019-Dec-04 09:35 203 -0.6
2019-Dec-04 09:30 203 -0.6
2019-Dec-04 09:25 203 -0.6
2019-Dec-04 09:20 203 -0.0
2019-Dec-04 09:15 203 -0.0
2019-Dec-04 09:10 203 -0.6
2019-Dec-04 09:05 203 -0.6
2019-Dec-04 09:00 203 -0.0
2019-Dec-04 08:55 203 -0.0
2019-Dec-04 08:50 203 -0.6
2019-Dec-04 08:45 203 -0.6
2019-Dec-04 08:40 160 -0.6
2019-Dec-04 08:35 160 -0.6
2019-Dec-04 08:30 160 -0.6
2019-Dec-04 08:25 160 -0.6
2019-Dec-04 08:20 220 -0.6
2019-Dec-04 08:10 220 -0.6
2019-Dec-04 08:05 220 -0.6
2019-Dec-04 08:00 220 -0.6
2019-Dec-04 07:55 220 -0.0
2019-Dec-04 07:50 220 -0.6
2019-Dec-04 07:45 220 -0.6
2019-Dec-04 07:35 220 -0.0
2019-Dec-04 07:25 220 -0.0
2019-Dec-04 07:20 220 -0.0
2019-Dec-04 07:15 220 -0.0
2019-Dec-04 07:10 220 -0.0
2019-Dec-04 07:05 220 -0.0
2019-Dec-04 07:00 220 -0.0
2019-Dec-04 06:55 220 -0.0
2019-Dec-04 06:50 220 -0.0
2019-Dec-04 06:45 220 -0.0
2019-Dec-04 06:40 220 -0.0
2019-Dec-04 06:35 220 -0.0
2019-Dec-04 06:30 220 0.6
2019-Dec-04 06:25 220 -0.0
2019-Dec-04 06:20 220 -0.0
2019-Dec-04 06:15 220 -0.0
2019-Dec-04 06:10 220 -0.0
2019-Dec-04 06:05 220 -0.0
2019-Dec-04 06:00 220 -0.0
2019-Dec-04 05:55 220 -0.0
2019-Dec-04 05:50 220 -0.0
2019-Dec-04 05:45 220 -0.0
2019-Dec-04 05:40 220 -0.0
2019-Dec-04 05:35 220 0.6
2019-Dec-04 05:30 220 0.6
2019-Dec-04 05:25 220 0.6
2019-Dec-04 05:20 220 0.6
2019-Dec-04 05:15 216 3 gusting 5 0.6
2019-Dec-04 05:10 238 1 gusting 5 0.6
2019-Dec-04 05:05 271 5 gusting 6 0.6
2019-Dec-04 05:00 242 4 gusting 4 0.6
2019-Dec-04 04:55 220 1 gusting 4 -0.0
2019-Dec-04 04:50 223 -0.0
2019-Dec-04 04:45 225 -0.0
2019-Dec-04 04:40 225 -0.0
2019-Dec-04 04:35 225 -0.0
2019-Dec-04 04:30 225 -0.0
2019-Dec-04 04:25 225 0.6
2019-Dec-04 04:20 225 0.6
2019-Dec-04 04:15 225 0.6
2019-Dec-04 04:10 225 -0.0
2019-Dec-04 04:05 225 -0.0
2019-Dec-04 04:00 225 -0.0
2019-Dec-04 03:55 225 -0.0
2019-Dec-04 03:50 225 0.6
2019-Dec-04 03:45 225 0.6
2019-Dec-04 03:40 225 -0.0
2019-Dec-04 03:35 225 -0.0
2019-Dec-04 03:30 225 -0.0
2019-Dec-04 03:25 225 -0.0
2019-Dec-04 03:20 225 0.6
2019-Dec-04 03:15 225 0.6
2019-Dec-04 03:10 225 0.6
2019-Dec-04 03:05 225 0.6
2019-Dec-04 03:00 225 0.6
2019-Dec-04 02:55 225 0.6
2019-Dec-04 02:50 225 0.6
2019-Dec-04 02:45 225 0.6
2019-Dec-04 02:40 311 1 gusting 6 0.6
2019-Dec-04 02:35 302 5 gusting 6 0.6
2019-Dec-04 02:30 295 5 gusting 7 0.6
2019-Dec-04 02:25 303 6 gusting 7 0.6
2019-Dec-04 02:20 303 6 gusting 7 0.6
2019-Dec-04 02:15 276 6 gusting 6 -0.0
2019-Dec-04 02:10 286 5 gusting 6 -0.0
2019-Dec-04 02:05 262 5 gusting 6 -0.0
2019-Dec-04 02:00 299 1 gusting 6 -0.0
2019-Dec-04 01:55 240 -0.0
2019-Dec-04 01:50 219 -0.0
2019-Dec-04 01:45 256 4 gusting 6 -0.0
2019-Dec-04 01:40 308 4 gusting 6 -0.0
2019-Dec-04 01:35 286 4 gusting 5 -0.0
2019-Dec-04 01:30 262 5 gusting 5 -0.0
2019-Dec-04 01:25 265 4 gusting 5 -0.0
2019-Dec-04 01:20 281 4 gusting 6 -0.0
2019-Dec-04 01:15 292 5 gusting 6 -0.0
2019-Dec-04 01:10 271 4 gusting 6 -0.0
2019-Dec-04 01:05 203 -0.0
2019-Dec-04 01:00 258 4 gusting 4 -0.0
2019-Dec-04 00:55 278 -0.0
2019-Dec-04 00:50 293 1 gusting 5 0.6
2019-Dec-04 00:45 256 1 gusting 5 -0.0
2019-Dec-04 00:40 293 4 gusting 6 -0.0
2019-Dec-04 00:35 293 4 gusting 5 -0.0
2019-Dec-04 00:30 272 4 gusting 4 -0.0
2019-Dec-04 00:25 248 1 gusting 5 -0.0
2019-Dec-04 00:20 212 1 gusting 3 -0.6
2019-Dec-04 00:15 249 -0.6
2019-Dec-04 00:10 249 -0.0
2019-Dec-04 00:05 249 -0.0
2019-Dec-04 00:00 249 0.6